Meath Environmental Platform

Observations for Trim Patrick St

Time AQI Temp °C Hum % Pres Pa CO μg/m³ H₂S μg/m³ NO μg/m³ NO₂ μg/m³ O₃ μg/m³ SO₂ μg/m³ PM1 μg/m³ PM2.5 μg/m³ PM10 μg/m³
Friday 28 August 2026
09:18 2 18.2 86 38,460 0.18 0.61 2.26 0.22 34.26 1.6 22.57 32.38 33.55
09:17 2 18.2 86 38,460 0.18 1.16 2.26 3.94 33.91 1.17 20.86 30.26 30.81
09:16 2 18.2 86 38,460 0.17 0.24 2.26 1.44 32.07 0.97 20.86 30.99 31.56
09:15 2 18.2 86 38,460 0.17 0.5 2.25 0.42 35.71 0.75 21.72 29.62 32.58
09:14 2 18.2 86 38,460 0.18 0.63 2.27 0 41.03 0.61 20 29.56 32.52
09:13 2 18.1 86 38,460 0.17 1.42 2.26 0.37 40.76 0.41 22.57 30.94 32.72
09:12 2 18.1 86 38,460 0.19 1.92 2.28 1.23 34.74 0.88 21.72 29.53 31.36
09:11 2 18.1 86 38,460 0.19 3.02 2.27 7.64 49.39 0 22.57 30.92 32.04
09:10 2 18.1 86 38,460 0.2 1.45 2.28 2.49 33.28 1.72 20 29.55 30.1
09:09 2 18.1 86 38,460 0.19 1.58 2.26 0.89 34.4 1.49 22.57 30.94 34.03
09:08 2 18 86 38,460 0.21 1.76 2.27 0.92 30.59 2.27 20.86 29.56 32.52
09:07 2 18 86 38,459 0.19 2 2.28 3.42 26.97 1.44 20.86 28.17 29.45
09:06 2 18 87 38,459 0.21 2.16 2.29 2.04 42.08 1.24 20.86 27.43 30.18
09:05 2 18 86 38,459 0.19 1.45 2.27 1.01 33.66 1.71 18.29 25.41 27.95
09:04 2 18 86 38,459 0.21 1.71 2.26 1.47 33.77 1.27 20 28.86 31.75
09:03 2 18 86 38,459 0.19 1.63 2.27 0.81 34.17 1.51 20 26.1 28.71
09:02 2 17.9 86 38,459 0.2 2.05 2.26 3.54 31.61 0.57 20 28.16 30.98
09:01 2 17.9 86 38,459 0.2 2.08 2.27 2.77 36.42 0.9 20.86 28.15 30.96
09:00 2 17.9 86 38,459 0.19 1.74 2.27 1.14 39.23 1.2 21.72 28.16 30.98
08:59 2 17.9 86 38,459 0.19 2.34 2.29 2.77 33.57 0.65 20.86 30.21 31.32